Location: Peebles
(55.6412°N, 3.1714°W)
Time: 11:51:22
(UTC+00:00)

CUTE-I - Pass Details

Date: 13 December 2023
Orbit: 807 x 823 km, 98.7° (Epoch: 24 February)

Event Time Altitude Azimuth Distance (km) Brightness Sun altitude
Rises 18:45:25 0° 205° (SSW) 3,325 ? -24.3°
Reaches altitude 10° 18:48:15 10° 220° (SW) 2,402 ? -24.7°
Maximum altitude 18:52:22 22° 271° (W) 1,701 ? -25.3°
Drops below altitude 10° 18:56:31 10° 322° (NW) 2,424 ? -25.9°
Sets 18:59:25 0° 337° (NNW) 3,364 ? -26.3°
